Probability
6 6 7 7 3 1 0 0 0 0 0 0 0 0 0 0 0 0 0 0 0 0 0 0 0 1 2 1 0 0 0 0 1 1 1 0 0 0 0 0 0 0 0 0 0 0 0 0 0
5 4 4 4 2 0 0 0 0 0 0 0 0 0 0 0 0 0 0 0 0 0 0 0 1 1 2 1 0 0 0 0 0 0 0 0 0 0 0 0 0 0 0 0 0 0 0 0 0
4 2 1 1 0 0 0 0 0 0 0 0 0 0 0 0 0 0 0 0 0 0 0 1 2 3 2 1 0 0 0 0 0 0 0 0 0 0 0 0 0 0 0 0 0 0 0 0 0
2 1 0 0 0 0 0 0 0 0 0 0 0 0 0 0 0 0 0 0 0 1 1 2 3 3 2 1 0 0 0 0 0 0 0 0 0 0 0 0 0 0 0 0 0 0 0 0 0
1 1 1 0 0 0 0 0 0 0 0 0 0 0 0 0 0 0 0 0 1 2 2 2 2 1 1 1 0 0 0 0 1 1 0 0 0 0 0 0 0 0 0 0 0 0 0 0 0
2 2 1 0 0 0 0 0 0 0 0 0 0 0 0 0 0 0 0 0 1 2 2 1 1 1 0 0 0 0 0 0 1 1 0 0 0 0 0 0 0 0 0 0 0 0 0 0 0
2 1 0 0 0 0 0 0 0 0 0 0 0 0 0 0 0 0 0 0 0 1 1 0 0 0 0 0 1 1 1 0 0 0 0 0 0 0 0 0 0 0 0 0 0 0 0 0 0
1 0 0 0 0 0 0 0 0 0 0 0 0 0 0 0 0 0 0 0 0 0 0 0 0 0 0 1 2 2 1 0 0 0 0 0 0 0 0 0 0 0 0 0 0 0 0 0 0
0 0 0 0 0 0 0 0 0 0 0 0 0 0 0 0 0 0 0 0 0 0 0 0 0 0 0 1 2 2 1 0 0 0 0 0 0 0 0 0 0 0 0 0 0 0 0 0 0
0 0 0 0 0 0 0 0 0 0 0 0 0 0 0 0 0 0 0 0 0 0 0 0 0 0 0 1 2 1 0 0 0 0 0 0 0 0 0 0 0 0 0 0 0 1 0 0 0
0 0 0 0 0 0 0 0 0 0 0 0 0 0 0 0 0 0 0 0 0 0 0 0 0 0 1 2 2 1 0 0 0 0 0 0 0 0 0 0 0 0 0 0 0 0 0 0 0
0 0 0 0 0 0 0 0 0 0 0 0 0 0 0 0 0 0 0 1 1 1 1 1 1 0 1 2 2 1 0 0 0 0 0 0 0 0 0 0 0 0 0 0 0 0 0 0 0
0 0 0 0 0 0 0 0 0 0 0 0 0 0 0 0 0 0 1 2 2 2 2 2 2 1 1 2 2 1 0 0 0 0 0 0 0 0 0 0 0 0 0 0 0 0 0 0 0
0 0 0 0 0 0 0 0 0 0 0 0 0 0 0 0 0 0 1 2 3 3 3 3 3 1 1 1 2 1 0 0 0 0 0 0 0 0 0 0 0 0 0 0 0 0 0 0 0
0 0 0 0 0 0 0 0 0 0 0 0 0 0 0 0 0 0 0 1 2 3 3 3 3 3 2 2 2 1 1 0 0 0 0 0 0 0 0 0 0 0 0 0 0 0 0 0 0
0 0 0 0 0 0 0 0 0 1 0 0 0 1 1 1 1 1 1 0 1 1 2 3 3 3 3 3 3 3 2 1 0 0 0 0 0 0 0 0 0 0 0 0 0 0 0 0 0
0 0 0 0 0 0 0 0 0 0 0 0 0 1 2 2 2 2 1 0 0 0 1 3 3 3 3 3 3 3 3 1 0 0 0 0 0 0 0 0 0 0 0 0 0 0 0 0 0
0 0 0 0 0 0 0 0 0 0 0 0 0 1 2 2 2 2 1 0 0 0 1 2 3 3 3 3 3 3 3 2 1 0 0 0 0 0 0 0 0 0 0 0 0 0 0 0 0
0 0 0 0 0 0 0 0 0 0 0 0 0 0 1 1 1 1 0 0 0 0 0 1 2 3 3 3 3 3 3 3 2 1 0 0 0 0 0 0 0 0 0 0 0 0 0 0 0
0 0 0 0 0 0 0 0 0 0 0 0 0 0 0 0 0 0 1 1 1 1 1 1 1 2 3 3 3 3 3 3 3 2 1 0 0 0 0 0 0 0 0 0 0 0 0 0 0
0 0 0 0 0 0 0 0 0 0 0 0 0 0 0 0 0 1 2 2 2 2 2 2 1 2 2 3 3 3 3 3 3 3 2 1 0 0 0 0 0 0 0 0 0 0 0 0 0
0 0 0 0 0 0 0 0 0 0 0 0 0 0 0 0 0 2 3 4 4 4 3 3 3 2 2 2 3 3 3 3 3 3 3 2 1 0 0 0 0 0 0 0 0 0 0 0 0
0 0 0 0 0 0 0 0 0 0 0 0 0 1 1 1 1 4 6 5 5 5 5 4 3 2 1 1 2 3 3 3 3 3 3 3 2 1 0 0 0 0 0 0 0 0 0 0 0
0 0 0 0 0 0 0 0 0 0 0 0 0 1 2 1 1 5 8 8 7 7 7 5 4 3 1 0 1 1 2 3 3 3 3 3 3 2 1 0 0 0 0 0 0 0 0 0 0
0 0 0 0 0 0 0 0 0 0 0 0 0 1 2 1 1 3 8 11 11 10 9 8 6 4 3 1 0 0 1 1 2 3 3 3 3 3 2 1 0 0 0 0 0 0 0 0 0
0 0 0 0 0 0 0 0 0 0 0 0 0 1 1 1 1 2 5 10 12 11 11 9 7 6 4 2 0 0 0 0 1 2 3 3 3 3 2 1 0 0 0 0 0 0 0 0 0
0 0 0 0 0 0 0 0 0 0 0 0 0 1 1 1 1 1 3 8 11 11 11 10 8 7 5 3 1 0 0 0 0 1 3 3 3 3 2 1 0 0 0 0 0 0 0 0 0
0 0 0 0 0 0 0 0 0 0 0 0 0 0 0 0 1 1 2 4 7 9 10 10 9 7 5 4 2 1 0 0 0 1 2 3 3 3 2 1 0 0 0 0 0 0 0 0 0
0 0 0 0 0 0 0 0 0 0 0 0 0 0 0 0 1 1 1 2 4 6 8 9 9 8 6 5 4 2 1 0 0 0 1 2 3 3 3 1 1 0 0 0 0 0 0 0 0
0 0 0 0 0 0 0 0 0 0 0 0 0 0 0 0 0 1 2 2 3 3 5 7 8 9 8 7 5 3 2 1 0 0 0 1 3 3 3 2 2 1 0 0 0 0 0 0 0
Wind_Speed
10 9 5 2 2 1 7 6 7 7 7 8 10 11 13 13 9 7 2 5 7 8 9 9 10 10 11 11 11 11 11 11 11 11 12 12 11 11 11 11 11 11 12 11 11 11 11 11 10
9 5 3 2 1 3 6 6 9 9 6 5 9 12 12 11 10 7 3 4 8 10 10 11 11 11 11 11 11 11 11 11 11 11 12 11 11 11 11 11 11 12 11 11 11 11 11 11 11
11 6 3 1 3 5 6 6 7 7 6 7 8 10 9 7 8 5 4 5 9 11 10 11 12 12 12 12 11 11 10 11 11 11 11 11 11 11 11 11 11 11 11 12 11 11 11 11 11
5 3 2 2 8 9 7 6 5 5 6 7 8 9 9 7 6 6 5 7 9 10 10 9 11 11 11 11 11 11 11 11 11 10 11 11 11 11 11 11 11 11 11 12 11 11 11 11 11
3 2 1 4 8 8 6 6 5 6 6 8 10 11 9 8 8 7 6 7 9 9 9 9 10 11 11 11 11 11 11 11 11 11 11 11 11 11 11 11 11 11 11 11 11 11 11 10 10
2 2 1 5 8 8 6 5 6 7 7 8 9 10 7 6 7 6 6 7 8 8 9 9 10 11 11 11 11 11 10 10 10 10 10 11 11 10 11 11 11 11 10 10 11 10 10 9 9
2 1 2 6 7 6 6 6 5 6 7 6 6 9 8 7 5 6 7 7 6 6 6 8 8 8 10 10 10 9 9 9 9 9 8 9 9 10 10 10 10 10 10 9 9 9 8 8 7
3 1 3 4 6 6 6 5 6 7 7 6 5 7 8 8 7 7 6 6 5 5 4 5 6 7 7 7 8 7 7 7 6 6 6 6 8 9 9 9 9 9 9 8 7 7 6 6 5
2 1 3 4 5 5 5 5 5 5 7 8 9 11 11 11 9 7 5 5 4 4 3 4 4 5 5 6 6 5 5 5 4 4 4 4 3 4 5 8 8 7 7 6 5 4 3 3 3
1 2 5 5 5 5 5 5 4 4 7 8 10 12 12 9 8 6 5 5 5 3 3 3 3 4 4 4 4 2 3 3 2 2 3 2 2 3 6 6 6 6 5 4 2 1 1 0 0
3 3 5 5 5 5 4 4 3 4 4 6 9 11 10 8 6 6 6 5 5 4 3 3 3 4 3 3 3 1 2 1 2 3 4 2 2 2 3 2 3 2 2 1 1 0 1 1 2
4 4 4 4 4 4 3 4 5 5 5 6 9 9 9 7 6 5 5 5 6 5 3 2 2 3 4 4 3 1 2 2 2 3 3 3 2 2 2 1 1 1 1 1 2 2 3 4 4
4 4 4 3 3 3 3 4 4 4 5 6 8 8 7 6 6 6 6 6 6 6 4 2 2 3 4 4 2 3 3 3 3 2 2 3 2 2 2 2 2 2 2 2 2 3 4 5 6
4 4 3 2 2 2 3 2 2 3 4 5 6 6 6 5 5 5 5 5 5 5 5 3 2 3 4 4 3 4 3 2 2 2 2 3 2 2 2 3 2 2 2 2 2 4 3 4 4
4 4 3 2 3 3 2 2 3 5 4 5 5 5 6 5 5 5 4 4 5 5 5 4 2 3 4 5 4 4 2 3 3 2 3 3 2 2 3 2 2 2 2 3 3 4 3 3 3
6 4 3 4 4 4 3 2 3 5 5 4 4 4 4 4 4 5 5 4 4 4 5 4 3 3 4 5 3 2 3 3 2 2 3 3 3 4 3 2 2 2 3 2 2 2 2 3 3
6 4 4 4 5 4 4 1 3 5 5 5 5 5 5 5 4 4 5 5 4 4 4 5 4 4 4 4 3 3 3 3 2 2 3 4 4 4 3 2 2 3 3 2 2 3 2 2 2
3 3 3 3 5 4 3 3 4 5 5 5 5 5 6 6 6 5 4 5 4 4 4 5 5 4 4 3 3 2 3 2 2 2 2 3 3 3 3 1 3 3 3 3 2 3 2 2 1
3 3 2 1 2 3 3 3 5 6 5 5 5 5 5 5 7 6 5 4 5 4 3 4 5 5 4 2 2 2 2 1 2 1 2 2 2 3 3 3 3 3 3 2 2 2 2 2 2
5 4 4 2 3 4 3 4 4 6 6 4 4 4 5 5 6 7 6 5 4 4 3 4 4 5 5 3 2 2 2 2 2 1 2 2 2 2 2 2 3 3 2 3 3 3 2 1 1
5 5 4 4 4 6 5 5 6 7 6 6 4 3 3 5 5 6 6 5 5 5 4 3 3 5 5 4 2 2 2 1 2 2 1 1 2 2 2 3 3 2 2 2 2 2 2 1 2
4 3 5 6 6 4 5 4 4 6 7 7 5 4 3 4 5 5 5 6 5 5 5 4 4 5 4 4 3 3 2 2 2 2 2 1 1 2 2 2 2 2 2 2 1 2 1 1 1
4 5 6 8 8 8 8 5 3 6 6 6 5 4 4 3 5 6 6 5 5 5 5 4 4 4 4 4 4 3 2 2 2 2 3 2 1 2 2 1 1 1 1 1 2 2 2 1 1
6 7 10 9 7 7 7 6 2 2 3 5 5 4 4 3 4 5 5 5 5 5 4 4 4 4 4 4 4 3 3 3 3 3 3 2 2 1 2 2 1 1 1 1 1 1 1 1 1
7 6 4 4 5 5 5 3 3 5 4 4 5 4 4 4 3 4 6 5 5 5 5 5 5 4 4 4 4 4 4 3 3 3 3 2 2 1 2 2 1 1 1 1 1 1 1 2 2
6 7 4 4 3 2 3 2 5 7 6 5 5 5 4 4 4 3 5 5 5 5 5 5 5 4 4 3 2 3 4 2 2 2 3 2 2 2 2 2 2 2 1 2 1 1 1 2 2
6 5 6 8 9 6 2 3 5 6 6 5 4 5 4 3 4 4 4 5 5 5 5 4 5 5 4 4 3 2 3 3 2 2 2 2 3 3 3 3 3 2 2 2 2 1 1 2 2
7 7 5 4 4 5 4 3 4 5 4 4 4 3 3 3 3 3 4 4 5 4 4 5 5 5 4 4 4 3 2 3 2 2 2 3 3 3 4 3 3 3 2 2 2 2 1 2 1
6 7 5 4 5 5 4 1 3 5 4 3 3 3 3 2 2 3 3 3 4 5 4 4 5 5 4 4 4 4 3 3 2 2 2 2 3 3 4 4 3 3 3 3 2 2 1 2 1
5 6 6 5 5 5 5 1 3 4 3 2 2 3 3 2 2 2 3 3 3 4 4 4 4 4 4 4 4 3 3 3 3 2 2 2 2 3 3 3 3 3 3 3 3 2 2 2 2
Wind_Direction
278 257 252 266 283 86 65 58 61 58 55 47 49 58 66 53 52 82 103 76 79 81 84 73 69 70 67 66 63 64 65 66 67 68 69 71 71 72 72 72 71 70 68 66 64 63 63 61 59
280 285 274 245 295 77 74 68 64 61 68 65 59 62 68 65 73 91 91 74 83 82 75 72 75 73 68 66 65 65 65 67 68 70 72 73 73 73 75 73 72 71 68 67 66 65 64 60 57
265 265 268 285 33 59 82 77 80 74 60 63 71 61 55 55 65 85 103 94 86 86 83 77 75 73 69 67 66 67 66 69 70 72 74 75 76 77 78 76 73 70 67 67 66 66 65 60 55
268 262 251 61 69 65 86 107 98 86 73 63 80 76 71 49 69 97 109 98 93 92 91 87 80 78 73 71 68 66 67 69 71 73 76 79 79 79 78 74 71 69 68 67 67 66 65 60 52
241 255 131 91 82 81 77 79 78 75 76 68 76 89 85 76 88 100 96 92 92 93 99 98 91 85 79 76 73 69 68 69 69 71 77 82 82 81 79 74 70 69 69 68 67 66 65 59 51
274 263 113 92 90 87 82 83 84 78 79 85 95 101 93 105 102 103 101 93 93 99 108 112 104 97 89 82 79 76 74 75 73 73 79 84 85 84 80 75 72 69 69 71 70 69 64 58 50
289 327 100 106 103 91 79 68 71 76 74 67 88 101 114 117 120 123 112 106 103 103 113 129 132 118 102 93 87 85 84 82 82 82 85 92 94 91 84 78 74 72 71 73 74 72 66 57 47
303 329 95 96 99 89 82 74 67 72 76 58 58 99 124 131 134 124 116 112 106 106 105 113 124 130 128 118 107 105 104 99 99 102 104 107 108 102 95 85 79 77 77 80 81 80 76 62 49
277 63 75 82 93 100 105 97 84 86 86 78 68 80 113 129 131 121 118 110 100 89 91 99 106 114 123 124 127 139 135 136 132 132 143 144 131 119 101 91 93 91 89 90 96 99 101 89 53
107 71 76 71 81 99 99 93 99 107 101 102 99 101 117 131 137 135 133 121 112 101 91 90 89 99 98 90 115 141 124 140 166 126 111 109 81 89 98 111 115 117 114 114 122 151 143 175 33
87 91 77 73 78 93 98 92 78 86 90 103 118 125 133 142 146 143 130 118 114 102 72 78 94 91 102 98 81 63 86 88 79 86 88 70 77 104 109 129 136 143 136 103 106 105 5 65 61
95 88 77 77 83 90 93 84 68 68 76 89 112 129 140 148 150 143 134 128 127 118 102 60 71 95 93 89 88 68 69 67 52 48 79 76 55 70 83 76 68 93 74 46 45 46 39 43 48
110 105 97 91 97 102 94 84 78 82 91 104 120 135 147 156 151 145 137 138 135 127 126 105 78 86 90 90 79 80 62 54 61 34 53 73 56 63 77 68 42 49 59 50 40 52 47 41 35
103 108 111 124 122 125 118 123 129 125 131 133 140 150 153 149 147 138 139 138 134 130 130 120 111 96 97 96 79 70 70 73 59 25 31 81 70 62 70 71 43 34 38 39 48 66 54 55 45
148 154 161 187 183 157 169 172 166 152 157 151 158 153 151 155 158 151 142 144 134 130 126 131 131 102 92 86 73 78 64 66 60 36 15 56 61 59 66 66 55 47 45 35 46 57 52 68 59
203 197 194 195 190 181 227 221 153 154 162 161 164 143 158 162 175 157 150 139 132 132 133 130 116 99 90 85 78 87 78 64 59 43 16 27 56 64 60 48 41 59 57 44 51 64 57 59 58
224 213 197 185 182 183 212 228 152 159 169 174 176 165 173 167 173 155 144 135 130 132 141 134 125 111 100 102 99 62 81 77 65 47 33 21 32 66 73 42 37 61 58 39 41 58 63 69 75
226 221 224 185 175 196 210 207 171 178 189 191 182 175 174 171 172 156 143 134 137 139 140 139 135 124 115 104 100 83 69 74 72 58 51 37 20 41 74 64 55 57 54 40 40 56 48 63 68
286 288 277 233 209 241 234 222 187 182 194 198 185 180 180 171 157 152 150 147 149 146 136 129 140 128 118 113 119 118 111 100 87 71 69 62 32 34 57 49 58 54 59 44 41 60 46 26 64
267 266 263 240 240 258 243 238 208 185 189 191 201 188 179 169 160 154 152 158 154 139 137 126 127 129 129 128 130 128 122 124 107 78 62 59 61 46 60 63 78 70 59 41 43 63 43 3 33
260 273 287 284 268 256 251 247 216 188 185 181 198 190 185 171 167 160 160 158 148 147 146 140 138 129 133 136 118 103 95 93 106 109 85 51 71 67 53 56 65 77 91 70 50 65 59 4 346
269 279 288 284 274 261 241 257 200 177 173 178 182 175 177 174 167 157 157 156 157 152 147 155 152 133 126 130 128 132 140 148 147 132 135 127 92 88 76 74 68 66 70 73 33 83 69 58 351
293 305 278 270 270 268 254 255 195 174 175 170 167 166 167 170 166 157 157 159 158 149 150 158 144 132 133 137 138 161 146 144 133 129 137 139 116 110 102 86 81 86 81 71 38 48 55 67 40
278 271 261 252 258 261 249 239 187 168 145 147 148 151 154 153 151 147 147 144 142 142 146 145 143 138 139 150 157 163 148 151 149 150 152 152 145 146 140 127 110 96 94 90 68 56 67 64 43
251 267 270 237 218 240 238 220 127 103 87 102 117 129 141 139 141 142 144 141 143 150 152 151 149 144 151 167 169 159 149 164 164 161 153 157 150 151 152 140 141 129 106 97 77 65 62 68 59
256 255 273 289 279 267 220 182 116 107 97 90 99 107 111 126 127 125 140 144 145 150 160 164 157 160 168 171 176 163 152 147 146 166 157 168 151 148 143 141 135 122 112 109 92 79 67 74 63
278 271 283 287 292 291 246 121 119 122 125 116 109 105 106 120 134 138 136 141 149 158 163 165 161 168 174 173 181 161 145 144 145 175 166 159 149 145 146 151 143 138 134 118 112 89 78 86 61
262 294 295 284 291 283 270 213 154 152 140 125 111 107 115 122 130 134 139 151 149 153 168 168 165 169 177 179 175 158 148 145 156 161 164 154 146 146 150 155 152 148 149 142 128 118 100 114 111
232 249 263 278 280 289 294 11 74 136 121 120 117 105 93 109 131 144 146 143 154 155 161 167 173 176 179 182 171 161 162 156 157 156 155 154 156 158 160 165 163 156 161 156 144 149 160 139 136
277 273 278 281 285 285 289 335 81 96 100 106 106 97 96 105 114 126 136 137 151 162 167 177 185 181 178 176 163 165 165 154 158 167 168 160 167 169 164 162 158 162 160 155 157 163 171 161 158